Starlink 30840

operational
NORAD ID: 58223 Int'l Des: 2023-170 Owner: SPXS Country: US Constellation: starlink
LEOCIRCULAR

Über Starlink 30840

Beschreibung wird geladen...

Live-Position

3D-Globus wird geladen...

Nächste Überflüge

Höhenverlauf

Altitude vs Time

uPlot chart will show altitude changes over time

Zweizeiliger Elementsatz

1 58223U 23170T 25308.62866410 .00000097 00000-0 22265-4 0 9991
2 58223 43.0015 155.7398 0000766 259.0407 101.0349 15.02536894111463
Epoch: 4. Nov. 2025 • Age: 6 hours

Aktueller Status

Höhe 571.4 km
Geschwindigkeit 7.58 km/s
Subsatellitenpunkt -41.90°S, 80.02°E
Startdatum 4. Nov. 2023
Alter 2 years
Typ internet

Technische Details

Klassifizierung Payload
Masse 730.00 kg
Trockenmasse 700.00 kg
Gesamtmasse 730.00 kg
Länge 0.30 m
Durchmesser 4.10 m
Spannweite 29.00 m
Form Box + pan
Hersteller SPXS
Bus-Typ Starlink V2M
Phasenstatus In Orbit
Besitzer/Staat SPXS/US

Große Konstellationen

Loading constellations...